Regional Weather Roundup
Issued by NWS

Home | Current Version | Previous Version | Text Only | Print | Product List | Glossary Off
Versions: 1 2 3 4 5 6 7 8 9 10 11 12 13 14 15 16 17 18 19 20 21 22 23 24 25 26 27 28 29 30 31 32 33 34 35 36 37 38 39 40 41 42 43 44 45 46 47 48 49 50

927
ASUS43 KLMK 310902
RWRKY
KENTUCKY REGIONAL WEATHER ROUNDUP
NATIONAL WEATHER SERVICE LOUISVILLE KY
500 AM EDT TUE MAY 31 2016

NOTE "FAIR" INDICATES FEW OR NO CLOUDS BELOW 12,000 FEET
WITH NO SIGNIFICANT WEATHER AND/OR OBSTRUCTIONS TO VISIBILITY.

KYZ001>023-026-027-061>063-070>075-311000-
WESTERN AND SOUTH CENTRAL KENTUCKY

CITY           SKY/WX    TMP DP  RH WIND       PRES   REMARKS
PADUCAH        CLOUDY    66  63  90 CALM      29.95R
HENDERSON      CLOUDY    66  61  82 CALM      29.96S
OWENSBORO      CLOUDY    68  65  90 CALM      29.97R
HOPKINSVILLE   NOT AVBL
BOWLING GREEN  MOCLDY    64  61  90 CALM      29.97R
GLASGOW        NOT AVBL
$$

KYZ024-025-028>034-038-045-046-053-311000-
NORTH CENTRAL KENTUCKY

CITY           SKY/WX    TMP DP  RH WIND       PRES   REMARKS
LOUISVILLE/SDF CLOUDY    68  60  75 CALM      29.98R
LOUISVILLE/LOU CLOUDY    66  60  81 CALM      29.98R
FORT KNOX      PTCLDY    61  58  91 CALM      29.97R
$$

KYZ035>037-039>044-047>052-055>060-089>105-311000-
NORTHEAST KENTUCKY

CITY           SKY/WX    TMP DP  RH WIND       PRES   REMARKS
LEXINGTON      CLEAR     63  59  87 CALM      29.99S
COVINGTON      MOCLDY    64  59  83 CALM      29.98S
FRANKFORT      CLOUDY    61  57  87 CALM      29.97S
$$

KYZ054-064>069-076>088-106>120-311000-
SOUTHEAST KENTUCKY

CITY           SKY/WX    TMP DP  RH WIND       PRES   REMARKS
JACKSON        CLEAR     65  58  78 CALM      30.00S
LONDON         CLEAR     60  58  92 CALM      29.99S
SOMERSET       NOT AVBL
MIDDLESBORO    CLOUDY    60  60 100 CALM      30.01S FOG
MONTICELLO     SUNNY     59  58  96 W10       30.00R FOG
$$





USA.gov is the U.S. government's official web portal to all federal, state and local government web resources and services.